[Iaude] MPEC A111: 2005 BH14 [a=1.17,e=0.65,i=25.0,H=21.45]
    mpec at marsden.cfa.harvard.edu 
    mpec at marsden.cfa.harvard.edu
       
    Wed Jan 10 11:36:06 EST 2024
    
    
  
M.P.E.C. 2024-A111                             Issued 2024 January 10, 16:34 UT
     The Minor Planet Electronic Circulars contain information on unusual
         minor planets, routine data on comets and natural satellites,
         and occasional editorial announcements.  They are published
    on behalf of Division F of the International Astronomical Union by the
          Minor Planet Center, Smithsonian Astrophysical Observatory,
                          Cambridge, MA 02138, U.S.A.
			  
             Prepared using the Tamkin Foundation Computer Network
                              MPC at CFA.HARVARD.EDU
            URL https://www.minorplanetcenter.net/    ISSN 1523-6714
                                   2005 BH14                                    
                           Revision to MPEC 2005-B38                            
Additional Observations:
     K05B14H KC2013 12 14.63529911 52 38.326-03 30 58.05         23.24GVEA111F51
     K05B14H  C2019 01 08.62546911 29 22.841-06 29 51.29         22.34GVEA111F51
     K05B14H  C2019 01 08.63592911 29 21.017-06 30 01.73         22.32GVEA111F51
     K05B14H  C2019 01 08.64637311 29 19.227-06 30 11.65         22.20GVEA111F51
     K05B14H  C2019 01 08.65682111 29 17.443-06 30 21.58         22.29GVEA111F51
     K05B14H  C2019 01 12.54496811 17 51.236-07 30 42.10         22.19GVEA111F51
     K05B14H  C2019 01 12.55833511 17 48.727-07 30 54.13         22.04GVEA111F51
     K05B14H  C2019 01 12.57168911 17 46.121-07 31 05.83         22.31GVEA111F51
     K05B14H  C2019 01 12.58506211 17 43.549-07 31 17.70         21.87GVEA111F51
     K05B14H  C2019 01 16.63985811 04 26.873-08 26 39.10         22.26GVEA111F52
     K05B14H  C2019 01 16.65147511 04 24.430-08 26 47.64         22.78GVEA111F52
     K05B14H  C2024 01 07.64722811 55 03.286+02 19 50.90         20.93wXEA111F51
     K05B14H  C2024 01 07.65402711 55 00.549+02 19 44.40         21.08wXEA111F51
     K05B14H  C2024 01 07.66088211 54 57.770+02 19 37.79         21.21wXEA111F51
Observer details:
F51 Pan-STARRS 1, Haleakala.  Observers J. Herman, T. Lowe, P. Minguez, A.
    Schultz, I. Smith.  Measurers K. Chambers, T. de Boer, J. Fairlamb, H.
    Gao, M. Huber, C.-C. Lin, E. Magnier, Y. Ramanjooloo, R. Wainscoat, R.
    Weryk.  1.8-m Ritchey-Chretien + CCD.
F52 Pan-STARRS 2, Haleakala.  Observers J. Herman, T. Lowe, P. Minguez, A.
    Schultz, I. Smith.  Measurers K. Chambers, T. de Boer, J. Fairlamb, H.
    Gao, M. Huber, C.-C. Lin, E. Magnier, Y. Ramanjooloo, R. Wainscoat, R.
    Weryk.  1.8-m Ritchey-Chretien + CCD.
First and last observations above in comparison with prediction:
Residuals in seconds of arc (or two decimals in degrees), reference and Delta-T
131214 F51 0.10+ 0.18+    240107 F51 1.21+ 1.18+    MPO 74486   -1.73 days
Orbital elements:
2005 BH14                                                Earth MOID = 0.0688 AU
Epoch 2023 Sept. 13.0 TT = JDT 2460200.5                Veres                   
M 318.79367              (2000.0)            P               Q                  
n   0.78033974     Peri.   50.13943     +0.93376891     +0.06070522             
a   1.1684592      Node   303.49573     -0.26731721     +0.77355222             
e   0.6540353      Incl.   25.01953     +0.23794356     +0.63081838             
P   1.26           H   21.45          G   0.15           U   1                  
Residuals in seconds of arc
050120 704  0.1+  0.4+    050121 H36  0.1+  0.2-    190108 F51  0.1-  0.2-
050120 704  0.5-  0.2+    050129 448  1.0-  0.3-    190108 F51  0.1+  0.0
050120 704  0.2-  0.1-    050129 448  0.1+  0.1-    190112 F51  0.3-  0.2+
050120 704  0.0   0.2+    050129 448  0.2+  0.6+    190112 F51  0.5+  0.0
050120 704  0.2-  0.1+    050129 448  0.1+  0.1-    190112 F51  0.0   0.1+
050121 673  0.0   0.5+    050129 448  0.2-  0.6-    190112 F51  0.0   0.0
050121 673  0.0   0.2+    050206 673  0.1+  0.7+    190116 F52  0.2-  0.1-
050121 673  0.0   0.4+    050206 673  0.0   0.6+    190116 F52  0.1-  0.0
050121 673  0.1+  0.1+    050206 673  0.1-  0.3+    240107 F51  0.0   0.1+
050121 673  0.1+  0.2+    050206 673  0.2-  0.4+    240107 F51  0.1+  0.0
050121 673  0.0   0.3+    131214 F51  0.1-  0.0     240107 F51  0.1+  0.1-
050121 H36  0.1-  1.1-    190108 F51  0.0   0.3-
050121 H36  0.2+  0.6+    190108 F51  0.3-  0.5-
Ephemeris:
2005 BH14                a,e,i = 1.17, 0.65, 25                  q = 0.4042
Date    TT    R. A. (2000) Decl.     Delta      r    Elong.  Phase     V
2023 12 11    14 18 53.9 +07 54 41   0.4143  0.7982    51.8   104.1    22.9
...
2023 12 26    13 08 27.2 +05 36 10   0.3601  0.9883    80.2    78.7    22.0
...
2024 01 03    12 24 15.3 +03 34 14   0.3375  1.0808    97.6    64.4    21.5
...
2024 01 09    11 46 04.6 +01 58 50   0.3273  1.1462   111.8    52.8    21.3
2024 01 10    11 39 18.4 +01 43 28   0.3264  1.1567   114.3    50.8    21.2
2024 01 11    11 32 26.2 +01 28 25   0.3258  1.1672   116.8    48.8    21.2
...
2024 01 17    10 49 49.3 +00 07 26   0.3290  1.2281   131.9    36.6    21.0
...
2024 01 25    09 53 52.8 -01 03 27   0.3543  1.3042   150.4    21.9    20.8
...
2024 02 09    08 34 37.4 -01 15 20   0.4670  1.4326   159.2    14.2    21.4
A. U. Tomatic                (C) Copyright 2024 MPC           M.P.E.C. 2024-A111
    
    
More information about the Iaude
mailing list